Weather History for KIAB - March, 2013

Change the Weather History Date:

Monday, March 18, 2013

  Actual Average (KICT) Record (KICT)
Temperature  
Mean Temperature 47 °F 47 °F  
Max Temperature 56 °F 59 °F 83 °F (1921)
Min Temperature 37 °F 36 °F 2 °F (1923)
Degree Days  
Heating Degree Days 18 18  
Month to date heating degree days 370  
Since 1 July heating degree days 4010  
Cooling Degree Days 0 0  
Month to date cooling degree days 0  
Year to date cooling degree days 0  
Moisture  
Dew Point 30 °F    
Average Humidity 69    
Maximum Humidity 100    
Minimum Humidity 19    
Precipitation  
Precipitation 0.01 in 0.09 in 1.44 in (1984)
Month to date precipitation 1.44  
Year to date precipitation 3.45  
Snow  
Snow 0.00 in 0.10 in 3.40 in (1961)
Month to date snowfall 1.5  
Since 1 July snowfall 13.9  
Snow Depth -    
Sea Level Pressure  
Sea Level Pressure 29.89 in    
Wind  
Wind Speed 9 mph (North)    
Max Wind Speed 20 mph    
Max Gust Speed 24 mph    
Visibility 10 miles    
Events Rain    
T = Trace of Precipitation, MM = Missing Value Source: NWS Daily Summary

Daily Weather History Graph

Daily Weather History Graph

Search for Another Location

Airport or City:

Trip Planner

Search our weather history database for the weather conditions in past years. The results will help you decide how hot, cold, wet, or windy it might be!

Date:

Astronomy

Mar. 18, 2013 Rise Set
Actual Time 7:35 AM CDT 7:39 PM CDT
Civil Twilight 7:09 AM CDT 8:05 PM CDT
Nautical Twilight 6:38 AM CDT 8:36 PM CDT
Astronomical Twilight 6:07 AM CDT 9:06 PM CDT
Moon 11:42 AM CDT (3/18) 1:33 AM CDT (3/18)
Length of Visible Light 12h 56m
Length of Day
12h 04m
Waxing Crescent, 41% of the Moon is Illuminated
Mar 18
Waxing Crescent
Mar 19
First Quarter
Mar 27
Full
Apr 2
Last Quarter
Apr 10
New

Hourly Weather History & Observations

Time (CDT) Temp. Windchill Dew Point Humidity Pressure Visibility Wind Dir Wind Speed Gust Speed Precip Events Conditions
12:03 AM 37.4 °F 34.9 °F 37.4 °F 100% 29.75 in 9.0 mi ESE 3.5 mph - N/A Rain Light Rain
12:11 AM 37.4 °F 34.9 °F 37.4 °F 100% 29.74 in 10.0 mi East 3.5 mph - N/A   Overcast
12:56 AM 37.4 °F 31.4 °F 37.4 °F 100% 29.76 in 10.0 mi NNE 8.1 mph - N/A   Overcast
12:58 AM 37.0 °F 31.0 °F 37.0 °F 100% 29.79 in 10.0 mi NNE 8.1 mph - 0.01 in   Overcast
1:13 AM 37.4 °F 32.8 °F 37.4 °F 100% 29.77 in 10.0 mi NNW 5.8 mph - N/A   Overcast
1:48 AM 37.4 °F 31.4 °F 37.4 °F 100% 29.78 in 9.0 mi North 8.1 mph - N/A   Overcast
1:53 AM 37.4 °F 30.8 °F 37.4 °F 100% 29.79 in 10.0 mi North 9.2 mph - N/A   Overcast
1:58 AM 37.2 °F 32.6 °F 37.2 °F 100% 29.80 in 10.0 mi North 5.8 mph - N/A   Overcast
2:23 AM 37.4 °F 31.4 °F 37.4 °F 100% 29.78 in 9.0 mi North 8.1 mph - N/A   Overcast
2:28 AM 37.4 °F 32.8 °F 37.4 °F 100% 29.77 in 10.0 mi North 5.8 mph - N/A   Overcast
2:58 AM 37.4 °F 32.8 °F 37.4 °F 100% 29.80 in 10.0 mi North 5.8 mph - N/A   Overcast
3:13 AM 37.4 °F 32.8 °F 37.4 °F 100% 29.77 in 10.0 mi North 5.8 mph - N/A   Overcast
3:56 AM 37.4 °F 32.8 °F 37.4 °F 100% 29.76 in 10.0 mi NNE 5.8 mph - N/A Rain Light Rain
3:58 AM 37.4 °F 31.4 °F 37.4 °F 100% 29.79 in 10.0 mi North 8.1 mph - N/A Rain Light Rain
4:16 AM 37.4 °F 31.4 °F 37.4 °F 100% 29.78 in 10.0 mi North 8.1 mph - N/A   Mostly Cloudy
4:58 AM 37.4 °F 32.8 °F 37.4 °F 100% 29.83 in 10.0 mi NW 5.8 mph - 0.00 in   Overcast
5:58 AM 37.9 °F 30.5 °F 37.9 °F 100% 29.86 in 10.0 mi NNW 11.5 mph - N/A   Overcast
6:23 AM 37.4 °F 28.9 °F 37.4 °F 100% 29.85 in 10.0 mi NNW 13.8 mph - N/A   Overcast
6:58 AM 38.7 °F 30.9 °F 38.7 °F 100% 29.89 in 10.0 mi NNW 12.7 mph - N/A   Overcast
7:13 AM 39.2 °F 32.0 °F 39.2 °F 100% 29.86 in 10.0 mi NNW 11.5 mph 21.9 mph N/A   Overcast
7:33 AM 39.2 °F 32.5 °F 39.2 °F 100% 29.87 in 10.0 mi NNW 10.4 mph - N/A   Scattered Clouds
7:58 AM 38.5 °F 31.1 °F 38.5 °F 100% 29.92 in 10.0 mi NNW 11.5 mph - N/A   Partly Cloudy
8:08 AM 39.2 °F 30.5 °F 39.2 °F 100% 29.90 in 10.0 mi NNW 16.1 mph - N/A   Mostly Cloudy
8:33 AM 39.2 °F 31.2 °F 39.2 °F 100% 29.91 in 10.0 mi NNW 13.8 mph - N/A   Scattered Clouds
8:58 AM 39.7 °F 31.2 °F 39.6 °F 99% 29.94 in 10.0 mi North 16.1 mph 23.0 mph N/A   Partly Cloudy
9:58 AM 42.4 °F 35.0 °F 39.2 °F 88% 29.97 in 10.0 mi NNE 15.0 mph 21.9 mph N/A   Clear
10:58 AM - - - N/A% - 10.0 mi North 19.6 mph 23.0 mph N/A   Clear
11:58 AM 46.4 °F 39.5 °F 23.0 °F 40% 29.97 in 10.0 mi North 17.3 mph - N/A   Partly Cloudy
12:58 PM 50.0 °F - 21.2 °F 32% 29.97 in 10.0 mi North 16.1 mph 20.7 mph N/A   Clear
1:58 PM 54.0 °F - 20.5 °F 27% 29.99 in 10.0 mi NNW 10.4 mph 20.7 mph N/A   Clear
2:58 PM 55.6 °F - 21.6 °F 27% 29.98 in 10.0 mi NNW 15.0 mph 23.0 mph N/A   Clear
3:45 PM 55.4 °F - 17.6 °F 23% 29.95 in 10.0 mi NW 16.1 mph 21.9 mph N/A   Clear
3:58 PM 55.9 °F - 18.5 °F 23% 29.97 in 10.0 mi WNW 10.4 mph 18.4 mph N/A   Clear
4:43 PM 57.2 °F - 17.6 °F 21% 29.96 in 10.0 mi NNW 13.8 mph 21.9 mph N/A   Clear
4:50 PM 57.2 °F - 17.6 °F 21% 29.96 in 10.0 mi NW 11.5 mph 21.9 mph N/A   Clear
4:52 PM 57.2 °F - 17.6 °F 21% 29.96 in 10.0 mi North 16.1 mph 24.2 mph N/A   Clear
4:56 PM 57.2 °F - 17.6 °F 21% 29.96 in 10.0 mi NW 15.0 mph 24.2 mph N/A   Clear
4:57 PM 57.2 °F - 17.6 °F 21% 29.96 in 10.0 mi WNW 13.8 mph 24.2 mph N/A   Clear
4:58 PM 56.5 °F - 18.1 °F 22% 29.98 in 10.0 mi WNW 13.8 mph 24.2 mph N/A   Clear
5:58 PM 56.8 °F - 14.7 °F 19% 29.98 in 10.0 mi NW 6.9 mph 20.7 mph N/A   Clear
6:58 PM 54.7 °F - 14.5 °F 20% 29.98 in 10.0 mi North 12.7 mph - N/A   Clear
7:58 PM 49.1 °F - 15.4 °F 26% 29.99 in 10.0 mi NNE 4.6 mph - N/A   Clear
8:58 PM 49.6 °F - 14.9 °F 25% 30.00 in 10.0 mi East 3.5 mph - N/A   Clear
9:58 PM 46.8 °F - 17.2 °F 31% 30.04 in 10.0 mi East 4.6 mph - N/A   Clear
10:58 PM 44.4 °F 41.2 °F 19.2 °F 37% 30.04 in 10.0 mi East 5.8 mph - N/A   Clear
11:58 PM 42.8 °F 40.1 °F 19.6 °F 40% 30.03 in 10.0 mi East 4.6 mph - N/A   Clear